Temperature
2 3 2 3 3 3 3 3 3 3 3 3 2 2 2 2 2 2 2 2 2 2 2 2 2 2 2 3 2 2 2 2 2 2 2 2 2 2 3 3 3 3 3 3
1 2 2 2 2 2 3 3 3 2 2 2 2 2 1 1 1 1 1 1 1 1 1 1 1 1 2 2 2 2 2 2 2 2 2 2 2 2 2 2 2 2 2 2
0 1 2 1 1 2 2 1 2 2 1 1 1 1 0 1 1 0 0 0 0 1 1 1 1 1 1 1 1 1 1 1 1 1 1 1 1 1 1 1 1 2 2 2
-0 0 0 1 1 1 1 0 0 0 0 0 0 0 0 1 0 0 -0 -0 -0 0 0 0 0 1 1 1 1 0 0 0 0 1 1 1 1 1 1 1 1 1 1 1
-1 -1 0 1 0 -0 -0 -0 -1 -1 -0 -0 -0 -0 -0 -0 -0 -0 -0 -0 -1 -0 -0 -0 -0 -0 -0 -0 -0 -0 -0 0 0 0 0 0 0 0 0 0 0 0 0 0
-1 -1 -0 -0 -1 -0 0 -1 -1 -2 -1 -1 -1 -1 -1 -1 -1 -1 -1 -1 -1 -1 -1 -1 -1 -1 -1 -1 -1 -1 -0 -0 -0 -0 -0 -0 -0 -0 -0 -0 -0 -0 -0 -0
-2 -2 -1 -2 -2 -0 -1 -1 -2 -2 -2 -2 -2 -2 -2 -2 -2 -2 -2 -2 -2 -2 -2 -2 -2 -2 -1 -1 -1 -1 -1 -1 -1 -1 -1 -1 -1 -1 -1 -1 -1 -1 -1 -1
-3 -3 -2 -2 -2 -2 -2 -2 -2 -2 -2 -3 -3 -3 -2 -2 -2 -2 -2 -2 -2 -2 -2 -2 -2 -2 -2 -2 -2 -2 -2 -1 -1 -1 -1 -1 -1 -1 -1 -1 -1 -1 -1 -1
-3 -3 -3 -3 -3 -2 -2 -3 -3 -3 -3 -3 -3 -3 -3 -3 -3 -3 -3 -3 -3 -3 -3 -3 -3 -3 -3 -2 -2 -2 -2 -2 -2 -2 -2 -2 -2 -2 -2 -2 -2 -2 -2 -2
-4 -4 -4 -3 -3 -3 -3 -3 -3 -3 -3 -3 -4 -4 -4 -4 -4 -4 -4 -4 -3 -3 -3 -3 -3 -3 -3 -3 -3 -3 -3 -3 -2 -3 -3 -3 -3 -3 -3 -3 -3 -3 -3 -3
-5 -5 -4 -4 -4 -4 -4 -4 -4 -4 -4 -4 -4 -4 -5 -5 -5 -5 -5 -4 -4 -4 -4 -4 -4 -4 -4 -4 -3 -3 -3 -3 -3 -3 -3 -3 -3 -3 -4 -3 -4 -3 -3 -3
-5 -5 -5 -5 -5 -4 -5 -5 -5 -5 -5 -5 -5 -5 -5 -5 -5 -5 -5 -5 -4 -4 -4 -4 -4 -4 -4 -4 -4 -4 -4 -4 -4 -4 -4 -4 -4 -4 -4 -4 -4 -4 -4 -4
-5 -5 -5 -5 -5 -5 -5 -5 -5 -5 -5 -5 -5 -6 -6 -6 -6 -6 -5 -5 -5 -5 -5 -5 -5 -5 -5 -5 -5 -5 -5 -5 -5 -5 -5 -5 -4 -4 -4 -4 -4 -4 -4 -4
-5 -5 -6 -6 -6 -6 -6 -6 -6 -6 -6 -6 -6 -6 -6 -6 -6 -6 -6 -6 -6 -6 -6 -5 -6 -6 -6 -6 -6 -6 -6 -5 -5 -5 -5 -5 -5 -5 -5 -5 -5 -5 -5 -5
-6 -6 -6 -6 -6 -6 -6 -6 -6 -6 -7 -7 -7 -7 -7 -7 -7 -7 -7 -6 -6 -6 -6 -6 -6 -6 -6 -6 -6 -6 -6 -6 -6 -6 -6 -6 -6 -6 -6 -6 -6 -6 -5 -5
-7 -7 -7 -7 -7 -7 -7 -7 -7 -7 -7 -7 -7 -7 -7 -7 -7 -7 -7 -7 -7 -7 -7 -7 -7 -7 -7 -7 -7 -7 -7 -6 -6 -6 -6 -6 -6 -6 -6 -6 -6 -6 -6 -6
-8 -8 -8 -8 -8 -8 -8 -8 -8 -8 -8 -8 -8 -8 -8 -8 -7 -7 -7 -7 -7 -7 -7 -7 -7 -7 -7 -7 -7 -7 -7 -7 -7 -7 -7 -7 -7 -7 -7 -7 -7 -7 -7 -7
-8 -8 -9 -9 -9 -8 -8 -8 -8 -8 -8 -8 -8 -8 -8 -8 -8 -8 -8 -8 -8 -8 -8 -8 -8 -8 -8 -8 -8 -8 -8 -8 -8 -8 -8 -8 -8 -8 -8 -8 -8 -7 -7 -7
-9 -9 -9 -9 -9 -9 -9 -9 -9 -9 -9 -9 -9 -9 -9 -9 -9 -9 -9 -9 -9 -9 -9 -9 -9 -9 -9 -8 -8 -8 -8 -8 -8 -8 -8 -8 -8 -8 -8 -8 -8 -8 -8 -8
-9 -9 -9 -9 -9 -9 -9 -9 -9 -9 -9 -9 -9 -9 -9 -9 -9 -9 -9 -9 -9 -9 -9 -9 -9 -9 -9 -9 -9 -9 -9 -9 -9 -9 -9 -9 -9 -9 -9 -8 -8 -8 -8 -8
-10 -9 -9 -9 -9 -9 -9 -9 -9 -9 -9 -9 -10 -10 -10 -10 -10 -10 -10 -10 -10 -10 -10 -10 -10 -10 -9 -9 -9 -9 -9 -9 -9 -9 -9 -9 -9 -9 -9 -9 -9 -9 -9 -9
-10 -10 -10 -10 -10 -10 -10 -10 -10 -10 -10 -10 -10 -10 -10 -10 -10 -10 -10 -10 -10 -10 -10 -10 -10 -10 -10 -10 -10 -10 -10 -9 -9 -9 -10 -10 -10 -10 -10 -9 -9 -9 -9 -9
-11 -11 -11 -11 -11 -11 -10 -10 -10 -11 -11 -11 -11 -11 -11 -11 -11 -11 -11 -11 -11 -11 -11 -10 -10 -10 -10 -10 -10 -10 -10 -10 -10 -10 -10 -10 -10 -10 -10 -10 -10 -10 -10 -9
-11 -11 -11 -11 -11 -11 -11 -11 -11 -11 -11 -11 -11 -11 -11 -11 -11 -11 -11 -11 -11 -11 -11 -11 -11 -11 -11 -11 -11 -10 -10 -10 -10 -10 -10 -10 -10 -10 -10 -10 -10 -10 -10 -10
-12 -11 -11 -11 -12 -12 -12 -12 -12 -12 -12 -12 -12 -12 -12 -12 -12 -11 -11 -11 -11 -11 -11 -11 -11 -11 -11 -11 -11 -11 -11 -11 -11 -11 -11 -11 -11 -11 -10 -10 -10 -10 -10 -10
-12 -12 -12 -12 -12 -12 -12 -12 -12 -12 -12 -12 -12 -12 -12 -12 -12 -12 -12 -12 -12 -11 -11 -11 -11 -11 -11 -11 -11 -11 -11 -11 -11 -11 -11 -11 -11 -11 -11 -11 -11 -10 -10 -10
-12 -12 -12 -12 -12 -13 -13 -13 -13 -13 -13 -12 -12 -12 -12 -12 -12 -12 -12 -12 -12 -12 -12 -12 -12 -12 -12 -12 -12 -12 -12 -12 -12 -12 -11 -11 -11 -11 -11 -11 -11 -11 -11 -11
Wind_Speed
9 8 5 6 6 6 6 6 6 6 6 5 5 3 2 1 2 3 3 3 3 2 2 2 2 2 2 2 2 2 2 1 1 1 1 1 1 1 1 0 0 0 1 1
6 5 5 6 6 6 7 6 6 5 5 6 4 3 3 2 2 2 2 2 1 2 2 1 1 1 2 2 2 2 1 1 1 1 1 1 1 1 1 1 1 0 1 1
6 6 3 4 4 4 3 2 3 5 6 5 4 3 2 2 2 2 1 1 1 1 1 1 1 0 1 1 2 2 1 1 1 0 1 1 1 1 1 1 1 1 1 1
3 2 5 3 0 1 2 1 2 2 4 4 4 2 2 2 2 1 2 1 1 1 2 2 1 1 1 1 1 2 2 1 1 0 1 1 1 1 1 1 1 1 1 1
2 3 5 3 3 2 2 1 3 3 5 6 4 3 3 4 3 2 2 1 1 1 2 2 2 1 1 2 2 2 2 2 2 1 1 1 1 1 1 1 1 1 1 1
2 3 3 3 7 7 1 1 5 4 4 5 4 2 3 5 4 3 3 2 2 3 3 2 2 2 2 2 2 2 3 3 2 1 1 1 2 2 1 1 1 1 1 1
3 4 3 4 8 4 2 4 5 4 4 3 2 3 3 3 3 2 3 3 3 3 2 3 2 2 2 2 2 3 3 3 3 2 2 1 1 1 1 1 1 1 2 2
1 2 4 5 4 2 2 2 3 4 4 3 3 3 3 3 3 3 3 3 3 3 3 3 3 2 2 3 3 3 3 3 3 3 2 2 1 1 1 1 1 1 2 2
3 3 2 2 1 2 2 2 3 4 4 3 3 3 4 4 3 3 3 3 3 2 3 3 3 3 3 4 3 3 3 3 3 3 2 2 1 1 1 1 1 2 2 2
1 2 3 4 3 4 3 3 4 3 3 3 3 3 3 3 3 3 3 3 3 3 3 4 4 4 3 4 3 3 3 3 3 3 3 3 2 1 1 1 1 2 2 2
2 3 3 3 4 4 4 4 4 4 4 3 3 3 2 3 3 3 3 3 3 3 3 3 4 4 4 4 4 3 3 3 3 3 2 2 2 2 2 2 2 2 3 3
4 4 3 5 5 5 4 5 5 5 5 4 3 2 3 2 2 3 3 3 3 4 4 4 4 5 5 5 4 3 3 3 3 3 2 2 2 3 5 4 4 4 4 4
4 4 3 4 4 4 4 4 4 4 4 4 4 3 2 2 2 3 3 3 3 3 4 3 4 5 6 6 5 4 3 3 3 3 3 3 2 2 3 4 6 6 6 6
3 2 3 3 4 5 4 4 4 4 4 3 3 3 2 3 3 3 3 4 3 3 3 3 4 4 5 5 5 4 4 4 3 3 3 3 2 2 2 2 3 4 6 7
4 3 2 4 4 5 5 4 4 5 5 5 4 3 3 3 3 4 4 4 4 4 4 3 4 4 5 5 4 4 3 3 3 3 2 2 3 2 2 2 2 3 4 5
5 4 3 4 5 5 5 5 4 5 4 5 4 4 3 3 3 3 4 3 3 4 4 4 4 5 5 4 4 3 3 5 5 3 3 3 3 3 2 2 2 3 3 4
4 5 5 5 6 6 5 5 4 4 4 4 4 4 3 3 3 4 4 4 3 3 4 4 5 5 5 4 4 3 3 4 6 4 3 3 3 3 3 3 3 3 3 4
4 4 5 5 5 5 5 5 4 4 4 4 4 3 2 2 3 4 4 4 3 3 4 5 5 5 5 5 4 3 3 3 3 3 3 3 3 3 3 3 3 4 3 4
6 5 5 5 5 4 4 4 5 4 4 4 3 2 2 2 2 3 3 3 3 3 4 4 6 5 4 5 5 2 3 3 3 4 3 4 4 3 3 3 3 4 4 4
6 6 5 5 5 4 4 4 4 4 4 3 2 2 2 2 2 2 2 2 2 2 3 5 5 4 4 4 5 2 3 3 3 3 3 3 3 3 3 4 4 4 4 3
7 6 6 6 6 5 5 5 4 4 3 2 2 2 2 2 2 2 2 3 3 3 4 6 4 4 3 4 4 3 3 3 3 3 3 3 3 3 4 4 4 4 4 4
5 5 6 5 5 6 5 5 4 4 3 3 2 2 2 3 3 2 2 2 3 6 4 3 3 5 5 5 3 3 3 3 3 3 3 3 3 3 4 4 4 4 4 4
5 5 5 5 5 5 6 5 4 4 3 3 3 3 3 3 2 2 3 3 3 6 4 3 5 7 7 4 3 3 3 3 3 3 3 3 3 3 4 4 4 4 4 4
5 5 5 5 4 4 5 5 5 4 3 3 3 3 3 3 2 2 2 5 6 6 3 5 7 7 6 3 2 3 3 3 3 3 3 3 3 3 3 4 4 4 4 5
5 5 4 5 5 4 5 5 5 4 4 3 4 4 3 2 2 3 3 3 5 6 3 5 7 7 4 3 3 3 3 3 3 3 3 3 3 4 4 4 4 4 5 5
5 4 4 4 4 4 4 4 4 4 4 4 4 4 3 3 3 3 3 3 4 5 4 3 4 4 3 3 3 3 3 4 4 4 3 4 4 4 4 4 5 5 5 5
5 4 3 4 4 4 4 3 4 4 4 4 5 4 4 4 3 3 4 3 3 4 3 3 3 3 3 3 3 3 3 3 3 3 4 4 4 4 5 5 5 5 5 6
Wind_Direction
264 270 258 257 270 261 237 230 231 252 250 279 299 293 302 350 48 82 85 86 85 83 72 64 56 44 40 24 10 15 29 39 24 7 21 25 19 15 21 44 92 245 267 260
274 267 267 275 278 256 248 244 239 252 270 297 309 356 18 22 55 71 67 59 61 65 64 57 59 34 14 2 353 1 354 343 340 17 29 29 16 8 10 5 353 2 317 280
267 280 294 269 273 247 226 243 225 245 270 316 337 353 333 339 44 52 35 20 47 61 49 338 308 335 330 325 344 358 337 324 343 9 13 344 4 20 358 337 340 347 322 305
265 308 243 240 216 178 171 34 16 351 334 324 309 308 360 41 59 12 342 352 2 7 3 351 352 359 355 3 5 359 350 334 331 330 326 331 351 327 317 324 317 285 289 289
227 245 262 303 342 328 239 254 353 338 330 336 338 343 1 14 18 353 324 334 354 4 1 2 1 359 11 12 7 1 340 331 323 304 293 297 295 297 304 317 319 297 293 298
231 238 249 296 315 311 192 253 345 350 328 327 1 338 299 336 347 1 14 19 24 29 26 18 354 4 28 12 4 340 326 324 333 322 285 270 269 280 293 289 290 295 301 286
236 244 265 310 320 354 124 282 327 343 334 340 323 269 288 323 347 22 31 26 30 33 27 7 5 31 30 9 335 319 326 332 335 330 309 272 270 286 275 292 302 299 299 299
214 237 271 335 18 54 265 319 342 348 348 343 332 342 6 21 26 28 27 24 23 23 12 7 15 29 16 346 330 335 343 341 333 324 319 327 298 306 303 270 271 282 289 300
202 219 289 353 344 309 325 338 339 347 342 344 358 360 4 14 20 19 21 19 14 21 18 13 14 21 2 336 342 349 354 346 334 332 333 333 319 310 320 302 268 279 282 287
263 286 328 336 340 349 350 335 331 342 339 350 353 358 3 7 9 11 17 15 15 25 23 10 4 8 355 341 347 356 354 345 341 346 345 346 340 336 323 309 295 287 280 281
281 295 318 334 337 332 342 351 349 346 347 341 348 349 350 355 356 1 7 6 12 15 9 358 359 2 357 354 0 0 352 348 348 349 344 346 349 342 327 305 288 284 274 265
263 274 277 291 313 333 345 345 342 342 341 344 346 337 348 351 352 360 3 1 4 5 3 358 359 357 353 352 357 357 349 347 345 344 340 339 341 348 359 352 350 345 327 308
271 289 288 286 316 336 331 330 336 337 332 335 343 346 349 348 354 1 358 356 353 348 351 352 355 353 348 348 352 352 339 335 337 339 335 334 334 335 335 347 0 359 352 344
328 333 315 315 318 329 329 332 341 345 345 343 342 347 352 350 355 356 345 338 341 349 351 351 353 348 341 345 349 348 341 338 342 331 327 325 321 317 317 324 332 336 343 350
346 339 304 315 329 336 341 349 356 352 350 350 349 350 351 347 343 335 334 340 350 354 349 349 351 341 340 344 348 346 342 339 336 333 330 329 326 323 324 326 330 330 335 342
324 334 341 339 337 337 341 344 339 332 335 336 337 335 333 333 331 332 337 347 351 343 339 344 342 336 341 345 346 345 340 341 349 347 344 341 337 334 330 333 338 338 335 332
328 327 330 328 327 324 324 319 314 313 320 324 324 327 335 342 343 341 340 342 342 337 339 345 337 339 342 345 349 346 343 341 349 348 341 337 336 334 331 334 336 332 328 334
318 305 300 297 302 310 317 320 319 319 317 315 325 339 347 346 335 332 335 341 353 0 354 343 341 348 349 350 351 345 341 338 338 334 332 333 337 338 338 339 335 330 325 332
334 327 322 320 315 310 310 314 316 316 317 319 324 322 322 324 326 327 334 347 2 350 335 331 347 357 348 344 351 347 345 342 341 338 337 343 352 348 346 341 334 327 327 331
342 338 335 335 337 334 323 319 318 315 313 319 325 331 338 338 339 339 346 348 326 300 308 331 349 346 338 334 345 345 344 339 336 335 337 341 341 342 341 337 333 332 334 337
336 338 340 341 339 338 331 324 322 324 329 332 322 318 324 326 328 331 342 342 338 333 337 347 352 334 329 334 349 356 347 339 337 335 337 337 336 335 335 335 335 335 335 336
331 334 335 337 338 335 334 333 332 332 337 340 339 336 339 337 338 339 332 310 319 332 345 340 329 327 338 353 11 2 348 338 332 331 330 329 328 327 328 330 328 328 329 328
328 330 330 332 332 328 332 338 337 337 335 331 331 331 330 323 322 327 327 328 327 330 343 331 329 339 356 17 9 353 339 331 325 323 322 321 321 320 318 319 318 319 319 319
331 331 328 327 334 341 342 338 337 337 331 325 325 324 326 332 334 328 307 319 330 333 342 332 339 345 3 12 347 334 325 318 313 309 310 313 315 314 312 312 311 311 311 311
328 327 330 337 341 336 331 331 337 341 343 344 342 340 332 320 307 314 317 315 324 335 339 336 340 345 352 332 326 319 312 304 302 308 310 311 309 308 306 305 304 304 305 304
327 327 327 327 322 321 324 328 331 331 334 337 338 337 334 328 320 314 316 316 314 328 330 316 316 328 325 317 314 311 308 310 318 317 306 304 302 301 299 300 300 299 297 296
324 326 330 333 332 330 325 324 325 327 328 326 323 325 328 328 327 325 322 319 317 317 313 311 309 308 307 306 307 306 305 304 302 300 298 296 294 293 294 294 293 293 293 294
Height
1490 1487 1486 1485 1483 1482 1482 1481 1481 1478 1477 1475 1474 1473 1472 1471 1470 1469 1470 1470 1470 1471 1471 1471 1471 1472 1472 1472 1472 1471 1471 1471 1471 1471 1471 1471 1471 1471 1471 1471 1471 1471 1471 1471
1490 1484 1484 1483 1481 1480 1478 1478 1477 1476 1477 1475 1474 1473 1472 1471 1470 1470 1470 1470 1471 1471 1471 1471 1471 1470 1471 1470 1470 1470 1470 1469 1469 1469 1469 1469 1469 1469 1468 1468 1468 1468 1468 1468
1491 1486 1483 1484 1482 1479 1479 1478 1478 1477 1478 1475 1474 1473 1472 1471 1471 1470 1470 1470 1469 1469 1470 1470 1470 1469 1469 1469 1469 1468 1468 1468 1468 1467 1467 1467 1466 1466 1466 1466 1466 1465 1465 1465
1492 1489 1489 1483 1479 1478 1479 1479 1479 1478 1477 1475 1474 1472 1472 1471 1471 1470 1470 1469 1469 1469 1468 1469 1468 1468 1468 1468 1467 1467 1466 1466 1466 1465 1465 1464 1464 1463 1463 1463 1463 1462 1462 1462
1492 1490 1484 1481 1479 1480 1479 1480 1480 1478 1477 1475 1473 1471 1471 1471 1471 1471 1470 1469 1468 1468 1467 1467 1467 1466 1466 1466 1465 1465 1465 1464 1463 1463 1462 1462 1461 1461 1460 1460 1460 1460 1459 1459
1491 1488 1484 1485 1480 1477 1478 1480 1480 1478 1477 1475 1474 1475 1473 1471 1470 1469 1469 1468 1467 1467 1466 1466 1465 1465 1464 1464 1463 1463 1462 1462 1461 1461 1460 1460 1459 1458 1458 1458 1457 1457 1457 1457
1493 1491 1487 1486 1481 1478 1484 1484 1480 1478 1477 1475 1474 1474 1473 1470 1469 1468 1468 1467 1466 1466 1465 1465 1464 1464 1463 1462 1462 1461 1461 1460 1459 1459 1458 1457 1457 1456 1456 1455 1455 1455 1454 1454
1495 1495 1493 1486 1483 1485 1485 1482 1480 1478 1476 1475 1473 1471 1470 1469 1468 1467 1466 1466 1465 1464 1464 1464 1463 1462 1461 1461 1460 1459 1458 1458 1457 1456 1456 1455 1454 1454 1454 1453 1452 1452 1451 1451
1493 1494 1490 1487 1486 1485 1483 1481 1480 1478 1476 1475 1472 1471 1469 1468 1468 1467 1466 1465 1464 1464 1463 1462 1462 1461 1460 1459 1458 1457 1456 1455 1455 1454 1454 1453 1452 1451 1451 1450 1450 1449 1449 1448
1492 1490 1489 1488 1486 1484 1483 1481 1479 1478 1476 1474 1472 1470 1469 1468 1467 1466 1465 1464 1463 1462 1462 1461 1461 1460 1459 1458 1456 1455 1454 1453 1453 1452 1451 1450 1450 1449 1448 1448 1447 1447 1446 1445
1491 1490 1488 1486 1485 1484 1482 1480 1478 1476 1475 1473 1471 1469 1468 1466 1466 1465 1464 1463 1462 1461 1460 1460 1459 1458 1457 1456 1455 1454 1453 1452 1451 1450 1449 1448 1447 1447 1446 1445 1445 1444 1443 1443
1492 1489 1489 1486 1485 1483 1481 1479 1477 1475 1473 1472 1470 1468 1466 1465 1465 1464 1463 1462 1461 1460 1459 1458 1457 1456 1456 1454 1453 1452 1451 1450 1449 1448 1447 1446 1445 1444 1443 1443 1442 1441 1441 1440
1489 1487 1486 1485 1483 1482 1480 1477 1475 1474 1472 1470 1468 1467 1465 1464 1463 1463 1462 1461 1460 1459 1458 1457 1456 1455 1454 1453 1451 1450 1449 1448 1447 1446 1445 1444 1443 1442 1440 1440 1439 1438 1437 1436
1488 1486 1484 1483 1481 1479 1477 1475 1473 1472 1470 1469 1467 1465 1464 1463 1462 1461 1460 1459 1458 1458 1456 1455 1454 1453 1452 1451 1450 1449 1448 1447 1446 1444 1443 1442 1441 1440 1438 1437 1436 1435 1434 1433
1486 1485 1484 1481 1479 1477 1475 1473 1471 1470 1468 1467 1465 1464 1462 1461 1460 1459 1458 1458 1457 1456 1455 1454 1453 1452 1451 1450 1448 1447 1446 1445 1444 1443 1441 1440 1439 1437 1436 1435 1434 1433 1431 1430
1485 1483 1481 1479 1477 1475 1473 1471 1470 1468 1466 1464 1463 1462 1461 1460 1459 1458 1457 1456 1455 1453 1453 1452 1451 1450 1449 1448 1447 1446 1444 1443 1442 1441 1439 1438 1437 1435 1434 1433 1432 1430 1429 1428
1483 1481 1479 1477 1475 1474 1472 1470 1468 1466 1464 1463 1461 1460 1459 1457 1456 1455 1454 1454 1453 1452 1451 1450 1449 1448 1447 1446 1445 1444 1443 1441 1440 1439 1437 1436 1435 1434 1432 1431 1430 1428 1427 1426
1482 1480 1478 1476 1474 1472 1470 1468 1467 1465 1463 1461 1459 1458 1456 1455 1454 1453 1452 1451 1451 1450 1449 1448 1447 1446 1446 1445 1444 1443 1441 1440 1438 1437 1436 1434 1433 1432 1431 1429 1428 1427 1425 1424
1480 1478 1476 1474 1472 1470 1468 1466 1464 1463 1461 1459 1457 1456 1454 1453 1452 1451 1450 1449 1448 1448 1447 1447 1446 1445 1444 1443 1442 1441 1440 1438 1437 1436 1434 1433 1432 1431 1429 1428 1426 1425 1424 1422
1479 1476 1474 1472 1470 1468 1466 1464 1462 1460 1459 1457 1455 1454 1452 1451 1451 1449 1448 1448 1447 1446 1446 1445 1444 1443 1442 1441 1440 1439 1438 1437 1436 1434 1433 1432 1430 1429 1428 1426 1425 1424 1422 1421
1477 1475 1473 1470 1468 1466 1464 1462 1460 1458 1457 1455 1453 1451 1450 1450 1449 1448 1446 1446 1446 1445 1444 1443 1442 1442 1441 1440 1439 1438 1436 1435 1434 1433 1431 1430 1429 1427 1426 1424 1423 1422 1420 1419
1476 1473 1471 1469 1466 1464 1462 1460 1458 1456 1454 1453 1451 1450 1449 1448 1447 1446 1445 1445 1444 1443 1443 1442 1441 1440 1439 1438 1437 1436 1434 1433 1432 1431 1429 1428 1427 1425 1424 1423 1421 1420 1419 1417
1474 1472 1470 1467 1465 1462 1460 1458 1456 1454 1452 1450 1449 1448 1447 1446 1445 1444 1443 1443 1442 1442 1441 1440 1439 1438 1437 1436 1435 1434 1432 1431 1430 1429 1427 1426 1425 1423 1422 1421 1419 1418 1417 1415
1472 1470 1468 1465 1463 1461 1458 1456 1454 1453 1451 1449 1448 1447 1445 1444 1443 1443 1442 1441 1441 1440 1439 1438 1437 1436 1435 1434 1433 1431 1430 1429 1428 1426 1425 1424 1422 1421 1420 1418 1417 1416 1414 1413
1471 1468 1466 1464 1461 1459 1457 1455 1453 1451 1449 1448 1447 1445 1444 1443 1442 1441 1440 1439 1439 1438 1437 1436 1435 1434 1432 1431 1430 1429 1428 1426 1425 1424 1422 1421 1420 1418 1417 1415 1414 1413 1412 1410
1469 1467 1464 1462 1460 1458 1456 1454 1451 1450 1448 1446 1445 1444 1443 1442 1441 1439 1438 1438 1437 1436 1434 1433 1432 1431 1430 1429 1428 1426 1425 1424 1423 1421 1420 1418 1417 1415 1414 1413 1411 1410 1409 1408
1467 1465 1463 1461 1459 1457 1455 1452 1450 1448 1447 1445 1443 1442 1441 1440 1439 1438 1436 1435 1434 1433 1432 1431 1430 1428 1427 1426 1425 1424 1422 1421 1420 1418 1417 1415 1414 1413 1411 1410 1409 1407 1406 1405